{"data":{"norad_id":44047,"epoch":"2026-05-25T04:07:40.662624Z","epoch_age_seconds":60078,"freshness":"FRESH","line1":"1 44047U 19008A   26145.17199841  .00000361  00000+0  64894-4 0  9999","line2":"2 44047  98.0044 210.2686 0001157  85.1011 275.0328 14.72275068389853","mean_motion":14.72275068,"eccentricity":0.0001157,"inclination_deg":98.0044,"raan_deg":210.2686,"arg_perigee_deg":85.1011,"mean_anomaly_deg":275.0328,"bstar":6.4894e-5,"rev_number":38985,"period_min":97.807809919389,"perigee_km":653.00094920798,"apogee_km":654.62814279572,"semimajor_km":7031.9515460019,"source":"CELESTRAK","updated_at":"2026-05-25T13:37:55.934367Z"}}